Hourly Weather Barr

Today, 8 May, Saturday

Time Temperature Precipitation Wind Pressure Humidity
00:00 +6°C° 0 mm 1 mps 737 mmHg 71%
01:00 +5°C° 0 mm 1 mps 737 mmHg 73%
02:00 +5°C° 0 mm 1 mps 736 mmHg 74%
03:00 +4°C° 0 mm 1 mps 736 mmHg 76%
04:00 +6°C° 0 mm 1 mps 736 mmHg 73%
05:00 +7°C° 0 mm 1 mps 736 mmHg 70%
06:00 +8°C° 0 mm 1 mps 736 mmHg 68%
07:00 +10°C° 0 mm 1 mps 736 mmHg 64%
08:00 +12°C° 0 mm 2 mps 736 mmHg 59%
09:00 +14°C° 0 mm 2 mps 736 mmHg 55%
10:00 +15°C° 0 mm 2 mps 735 mmHg 55%
11:00 +16°C° 0 mm 3 mps 735 mmHg 54%
12:00 +17°C° 0 mm 3 mps 734 mmHg 54%
13:00 +18°C° 0 mm 3 mps 734 mmHg 55%
14:00 +18°C° 0 mm 3 mps 734 mmHg 57%
15:00 +19°C° 0 mm 3 mps 733 mmHg 59%
16:00 +18°C° 0 mm 2 mps 733 mmHg 65%
17:00 +17°C° 0 mm 2 mps 733 mmHg 71%
18:00 +16°C° 0 mm 1 mps 732 mmHg 77%
19:00 +15°C° 0 mm 1 mps 732 mmHg 78%
20:00 +13°C° 0 mm 1 mps 732 mmHg 80%
21:00 +12°C° 0 mm 1 mps 732 mmHg 82%
22:00 +12°C° 0 mm 1 mps 732 mmHg 81%
23:00 +12°C° 0 mm 2 mps 731 mmHg 79%

Tomorrow, 9 May, Sunday

Time Temperature Precipitation Wind Pressure Humidity
00:00 +10°C° 0 mm 2 mps 731 mmHg 78%
01:00 +10°C° 0 mm 2 mps 731 mmHg 78%
02:00 +10°C° 0 mm 2 mps 730 mmHg 78%
03:00 +10°C° 0 mm 2 mps 730 mmHg 78%
04:00 +12°C° 0 mm 2 mps 730 mmHg 76%
05:00 +13°C° 0 mm 2 mps 730 mmHg 75%
06:00 +14°C° 0 mm 2 mps 730 mmHg 73%
07:00 +17°C° 0 mm 2 mps 730 mmHg 66%
08:00 +19°C° 0 mm 2 mps 730 mmHg 58%
09:00 +21°C° 0 mm 3 mps 730 mmHg 50%
10:00 +22°C° 0 mm 3 mps 729 mmHg 48%
11:00 +25°C° 0 mm 3 mps 729 mmHg 46%
12:00 +26°C° 0 mm 3 mps 729 mmHg 44%
13:00 +26°C° 0 mm 3 mps 729 mmHg 44%
14:00 +26°C° 0 mm 3 mps 728 mmHg 45%
15:00 +26°C° 0 mm 2 mps 728 mmHg 45%
16:00 +25°C° 0 mm 2 mps 728 mmHg 54%
17:00 +23°C° 0 mm 1 mps 728 mmHg 63%
18:00 +21°C° 0 mm 1 mps 727 mmHg 71%
19:00 +20°C° 0 mm 1 mps 727 mmHg 75%
20:00 +18°C° 0 mm 1 mps 727 mmHg 79%
21:00 +16°C° 0 mm 1 mps 727 mmHg 82%
22:00 +16°C° 0 mm 1 mps 727 mmHg 83%
23:00 +15°C° 0 mm 1 mps 726 mmHg 84%

Day after tomorrow, 10 May, Monday

Time Temperature Precipitation Wind Pressure Humidity
00:00 +15°C° 0 mm 1 mps 726 mmHg 85%
01:00 +14°C° 0 mm 1 mps 726 mmHg 85%
02:00 +14°C° 0 mm 2 mps 726 mmHg 85%
03:00 +13°C° 0 mm 2 mps 726 mmHg 85%
04:00 +14°C° 0.2 mm 2 mps 727 mmHg 85%
05:00 +14°C° 0.2 mm 2 mps 727 mmHg 85%
06:00 +15°C° 0.2 mm 1 mps 728 mmHg 85%
07:00 +15°C° 0.1 mm 2 mps 728 mmHg 83%
08:00 +16°C° 0.1 mm 2 mps 729 mmHg 81%
09:00 +16°C° 0.1 mm 3 mps 729 mmHg 80%
10:00 +15°C° 0.7 mm 2 mps 730 mmHg 83%
11:00 +15°C° 0.7 mm 2 mps 730 mmHg 86%
12:00 +14°C° 0.7 mm 1 mps 731 mmHg 89%
13:00 +14°C° 0.6 mm 1 mps 731 mmHg 90%
14:00 +14°C° 0.6 mm 1 mps 730 mmHg 90%
15:00 +14°C° 0.6 mm 1 mps 730 mmHg 91%
16:00 +13°C° 1.8 mm 1 mps 730 mmHg 93%
17:00 +13°C° 1.8 mm 1 mps 730 mmHg 96%
18:00 +12°C° 1.8 mm 1 mps 730 mmHg 98%
19:00 +12°C° 2.3 mm 1 mps 730 mmHg 98%
20:00 +12°C° 2.3 mm 1 mps 730 mmHg 98%
21:00 +11°C° 2.3 mm 0 mps 731 mmHg 97%
22:00 +11°C° 1.6 mm 1 mps 731 mmHg 97%
23:00 +11°C° 1.6 mm 1 mps 731 mmHg 97%

11 May, Tuesday

Time Temperature Precipitation Wind Pressure Humidity
00:00 +11°C° 1.6 mm 1 mps 731 mmHg 97%
01:00 +10°C° 1 mm 0 mps 731 mmHg 97%
02:00 +10°C° 1 mm 0 mps 730 mmHg 97%
03:00 +10°C° 1 mm 0 mps 730 mmHg 98%
04:00 +10°C° 0.2 mm 0 mps 730 mmHg 97%
05:00 +11°C° 0.2 mm 1 mps 730 mmHg 96%
06:00 +11°C° 0.2 mm 1 mps 730 mmHg 95%
07:00 +12°C° 0.1 mm 1 mps 729 mmHg 92%
08:00 +13°C° 0.1 mm 1 mps 729 mmHg 88%
09:00 +14°C° 0.1 mm 1 mps 729 mmHg 84%
10:00 +13°C° 1.4 mm 1 mps 729 mmHg 87%
11:00 +13°C° 1.4 mm 1 mps 729 mmHg 90%
12:00 +13°C° 1.4 mm 1 mps 729 mmHg 93%
13:00 +13°C° 1.1 mm 1 mps 729 mmHg 92%
14:00 +13°C° 1.1 mm 1 mps 729 mmHg 92%
15:00 +13°C° 1.1 mm 1 mps 729 mmHg 91%
16:00 +13°C° 1 mm 2 mps 729 mmHg 93%
17:00 +12°C° 1 mm 2 mps 730 mmHg 95%
18:00 +12°C° 1 mm 2 mps 730 mmHg 97%
19:00 +10°C° 0.7 mm 2 mps 730 mmHg 97%
20:00 +10°C° 0.7 mm 3 mps 730 mmHg 97%
21:00 +10°C° 0.7 mm 3 mps 731 mmHg 97%
22:00 +10°C° 0.3 mm 3 mps 731 mmHg 96%
23:00 +10°C° 0.3 mm 3 mps 731 mmHg 96%

12 May, Wednesday

Time Temperature Precipitation Wind Pressure Humidity
00:00 +10°C° 0.3 mm 3 mps 732 mmHg 95%
01:00 +9°C° 0.1 mm 3 mps 732 mmHg 95%
02:00 +9°C° 0.1 mm 3 mps 732 mmHg 94%
03:00 +9°C° 0.1 mm 3 mps 732 mmHg 94%
04:00 +9°C° 0 mm 3 mps 733 mmHg 93%
05:00 +9°C° 0 mm 3 mps 733 mmHg 93%
06:00 +9°C° 0 mm 3 mps 733 mmHg 92%
07:00 +9°C° 0 mm 3 mps 733 mmHg 89%
08:00 +9°C° 0 mm 3 mps 733 mmHg 87%
09:00 +10°C° 0 mm 3 mps 733 mmHg 84%
10:00 +11°C° 0.1 mm 3 mps 733 mmHg 77%
11:00 +13°C° 0.1 mm 2 mps 733 mmHg 70%
12:00 +14°C° 0.1 mm 2 mps 732 mmHg 63%
13:00 +14°C° 0.1 mm 2 mps 732 mmHg 62%
14:00 +14°C° 0.1 mm 2 mps 732 mmHg 61%
15:00 +14°C° 0.1 mm 3 mps 732 mmHg 60%
16:00 +14°C° 0 mm 2 mps 732 mmHg 65%
17:00 +13°C° 0 mm 2 mps 732 mmHg 70%
18:00 +12°C° 0 mm 1 mps 732 mmHg 75%
19:00 +11°C° 0 mm 1 mps 732 mmHg 78%
20:00 +10°C° 0 mm 1 mps 732 mmHg 82%
21:00 +8°C° 0 mm 1 mps 733 mmHg 85%
22:00 +8°C° 0 mm 1 mps 732 mmHg 85%
23:00 +8°C° 0 mm 1 mps 732 mmHg 86%

13 May, Thursday

Time Temperature Precipitation Wind Pressure Humidity
00:00 +7°C° 0 mm 1 mps 732 mmHg 86%
01:00 +7°C° 0 mm 1 mps 732 mmHg 86%
02:00 +7°C° 0 mm 1 mps 732 mmHg 87%
03:00 +7°C° 0 mm 1 mps 732 mmHg 87%
04:00 +7°C° 0 mm 0 mps 732 mmHg 83%
05:00 +8°C° 0 mm 0 mps 732 mmHg 79%
06:00 +9°C° 0 mm 0 mps 731 mmHg 75%
07:00 +11°C° 0 mm 0 mps 731 mmHg 70%
08:00 +13°C° 0 mm 1 mps 731 mmHg 64%
09:00 +15°C° 0 mm 1 mps 731 mmHg 59%
10:00 +15°C° 0 mm 1 mps 731 mmHg 58%
11:00 +16°C° 0 mm 1 mps 730 mmHg 57%
12:00 +16°C° 0 mm 1 mps 730 mmHg 56%
13:00 +16°C° 0.1 mm 1 mps 730 mmHg 57%
14:00 +16°C° 0.1 mm 1 mps 729 mmHg 58%
15:00 +18°C° 0.1 mm 1 mps 729 mmHg 59%
16:00 +16°C° 0.2 mm 1 mps 729 mmHg 66%
17:00 +15°C° 0.2 mm 1 mps 729 mmHg 73%
18:00 +14°C° 0.2 mm 1 mps 729 mmHg 79%
19:00 +13°C° 0.1 mm 1 mps 729 mmHg 82%
20:00 +12°C° 0.1 mm 1 mps 729 mmHg 85%
21:00 +10°C° 0.1 mm 1 mps 729 mmHg 88%
22:00 +10°C° 0 mm 1 mps 729 mmHg 89%
23:00 +10°C° 0 mm 1 mps 729 mmHg 90%
Show more